Location: Narrabri
(30.3170°S, 149.7830°E)
Time: 18:46:57
(UTC+10:00)

Amateur Radio Satellites - All Passes

Search period start: 23 May 2017 18:16
Search period end: 24 May 2017 18:16
Location: Narrabri, 30.3170°S, 149.7830°E

Satellite Date Start Highest point End Downlink Frequencies (MHz)
Time Altitude Azimuth
LilacSat-2 23 May 18:20:30 18:24:14 54° 256° (WSW) 18:27:57 437.200
PCSat 23 May 18:21:38 18:25:35 21° 286° (WNW) 18:29:31 145.827
BEESAT 3 23 May 18:22:19 18:24:55 17° 235° (SW) 18:27:32 437.485
CUTE 1.7 + AOD 2 23 May 18:27:38 18:30:20 16° 85° (E) 18:33:00 437.475
CUTE-I 23 May 18:50:42 18:55:51 46° 253° (WSW) 19:00:57 437.470
STRAND 1 23 May 19:00:40 19:05:47 65° 282° (WNW) 19:10:58 437.568
XW-2D 23 May 19:01:07 19:03:31 16° 251° (WSW) 19:05:54 145.860 - 145.880
AAUSAT CUBESAT 2 23 May 19:03:07 19:04:17 11° 87° (E) 19:05:27 437.432
XW-2B 23 May 19:09:23 19:11:17 13° 250° (WSW) 19:13:11 145.730 - 145.750
SO-50 23 May 19:17:00 19:20:55 24° 125° (SE) 19:24:48 436.795
JUGNU 23 May 19:22:38 19:27:24 26° 352° (N) 19:32:11 437.505
SEEDS 23 May 19:23:39 19:27:49 51° 80° (E) 19:31:56 437.485
HO-68 23 May 19:34:20 19:41:34 88° 78° (ENE) 19:48:46 435.675
M-CUBED/EXP-1 PRIME 23 May 19:37:01 19:40:28 81° 287° (WNW) 19:44:15 437.505
XW-2A 23 May 19:37:09 19:40:30 56° 257° (WSW) 19:43:47 145.665 - 145.685
AO-73 23 May 19:52:24 19:55:32 20° 84° (E) 19:58:36 145.935
SRMSAT 23 May 19:53:38 19:58:42 29° 4° (N) 20:03:48 437.500
CUBEBUG 2 23 May 19:57:29 20:01:53 83° 260° (W) 20:06:05 437.445
CUTE 1.7 + AOD 2 23 May 20:02:24 20:06:08 30° 253° (WSW) 20:09:51 437.475
ZACube-1 23 May 20:03:21 20:07:08 31° 82° (E) 20:10:50 437.345
UWE-3 23 May 20:16:30 20:20:49 85° 260° (W) 20:24:59 435.000/436.395/437.385
FO-29 23 May 20:22:11 20:28:41 30° 113° (ESE) 20:35:18 435.910
TIGRISAT 23 May 20:27:34 20:30:44 18° 111° (ESE) 20:33:54 435.000
AAUSAT CUBESAT 2 23 May 20:35:53 20:39:52 42° 255° (WSW) 20:43:49 437.432
NO-84 23 May 20:38:46 20:41:38 87° 224° (SW) 20:44:37 435.350 FM
PRISM 23 May 20:43:27 20:47:12 36° 107° (ESE) 20:51:01 437.425
UNISAT 6 23 May 20:56:35 21:01:01 42° 106° (ESE) 21:05:28 437.425
SO-50 23 May 20:57:13 21:01:20 29° 291° (WNW) 21:05:23 436.795
EO-88 23 May 21:01:46 21:04:15 17° 85° (E) 21:06:43 145.990 - 145.960
Oscar 11 23 May 21:05:37 21:09:54 56° 256° (WSW) 21:14:08 .
JUGNU 23 May 21:12:37 21:15:52 15° 343° (NNW) 21:19:07 437.505
HO-68 23 May 21:24:59 21:28:18 14° 240° (WSW) 21:31:37 435.675
AO-73 23 May 21:28:20 21:31:38 23° 251° (WSW) 21:34:55 145.935
DELFI C3 23 May 21:31:17 21:35:21 72° 80° (E) 21:39:21 145.870
ZACube-1 23 May 21:40:39 21:43:05 15° 249° (WSW) 21:45:28 437.345
SRMSAT 23 May 21:42:23 21:47:25 28° 354° (N) 21:52:28 437.500
RS-15 23 May 21:59:16 22:08:10 26° 134° (SE) 22:17:15 29.354- 29.394
LO-87 23 May 22:00:05 22:00:39 10° 87° (E) 22:01:14 145.935 - 145.965
TIGRISAT 23 May 22:02:46 22:07:04 35° 278° (W) 22:11:25 435.000
FO-29 23 May 22:05:51 22:13:13 49° 279° (W) 22:20:51 435.910
EO-79 23 May 22:16:16 22:19:13 18° 110° (ESE) 22:22:10 145.935-145.965
PRISM 23 May 22:20:55 22:22:34 12° 274° (W) 22:24:13 437.425
ESTCUBE 1 23 May 22:21:32 22:23:39 13° 86° (E) 22:25:45 437.505/2401.250
EO-88 23 May 22:35:03 22:37:48 20° 252° (WSW) 22:40:32 145.990 - 145.960
UNISAT 6 23 May 22:35:14 22:37:48 15° 274° (W) 22:40:24 437.425
AIST 2D 23 May 22:36:21 22:39:52 70° 102° (ESE) 22:43:27 435.315
NANOSAT C BR1 23 May 23:02:38 23:06:52 62° 104° (ESE) 23:11:09 145.865
POLYITAN 1 23 May 23:03:19 23:07:36 72° 104° (ESE) 23:11:56 437.675
QB50P2 23 May 23:11:42 23:16:01 81° 280° (W) 23:20:22 145.880/145.840
DUCHIFAT 1 23 May 23:15:30 23:19:46 81° 103° (ESE) 23:24:06 145.980
YUBILEINY 23 May 23:28:53 23:36:48 36° 103° (ESE) 23:44:36 435.215
LO-87 23 May 23:30:50 23:34:09 32° 254° (WSW) 23:37:26 145.935 - 145.965
SRMSAT 23 May 23:32:09 23:36:04 18° 345° (NNW) 23:40:01 437.500
VELOX 1 23 May 23:33:30 23:36:57 21° 84° (E) 23:40:22 145.980
BUGSAT 1 23 May 23:49:39 23:53:49 57° 105° (ESE) 23:58:03 437.445
EO-79 23 May 23:51:00 23:54:42 28° 277° (W) 23:58:27 145.935-145.965
ESTCUBE 1 23 May 23:56:15 00:00:34 42° 254° (WSW) 00:04:51 437.505/2401.250
SPROUT 23 May 23:57:01 00:01:08 41° 81° (E) 00:05:10 437.525
RS-15 24 May 00:10:24 00:21:35 79° 294° (WNW) 00:33:18 29.354- 29.394
DX 1 24 May 00:21:39 00:25:20 25° 83° (E) 00:28:58 434.975-435.025
UKube-1 24 May 00:22:45 00:25:34 17° 85° (E) 00:28:22 .
Oscar 19 24 May 00:26:05 00:30:59 48° 106° (ESE) 00:35:57 437.125/150
AO-7 24 May 00:43:18 00:44:19 10° 127° (SE) 00:45:21 .
AO-85 24 May 00:55:41 00:58:33 15° 131° (SE) 01:01:19 145.980
VELOX 1 24 May 01:09:33 01:13:17 26° 251° (WSW) 01:16:59 145.980
Gurwin Techsat 1B 24 May 01:11:45 01:17:05 83° 103° (ESE) 01:22:29 435.225
50 SAT 24 May 01:13:19 01:16:27 30° 254° (WSW) 01:19:34 437.505
ITAMSAT 1 24 May 01:22:40 01:24:34 12° 115° (ESE) 01:26:28 435.822/435.867
YUBILEINY 24 May 01:25:34 01:33:25 39° 267° (W) 01:41:13 435.215
SPROUT 24 May 01:34:45 01:36:35 12° 248° (WSW) 01:38:25 437.525
O/OREOS (USA 219) 24 May 01:48:54 01:53:13 38° 112° (ESE) 01:57:30 437.305
UKube-1 24 May 01:57:43 02:01:35 31° 252° (WSW) 02:05:24 .
DX 1 24 May 01:57:57 02:01:19 21° 250° (WSW) 02:04:38 434.975-435.025
Oscar 19 24 May 02:07:41 02:10:29 15° 274° (W) 02:13:17 437.125/150
AO-7 24 May 02:27:12 02:35:27 65° 110° (ESE) 02:43:46 .
RS-15 24 May 02:27:56 02:32:19 13° 280° (W) 02:36:48 29.354- 29.394
AO-85 24 May 02:34:23 02:39:30 63° 294° (WNW) 02:44:15 145.980
ITUPSAT 1 24 May 02:39:28 02:44:07 47° 80° (E) 02:48:41 437.325
BEESAT 3 24 May 02:42:51 02:46:27 39° 120° (ESE) 02:50:03 437.485
ITAMSAT 1 24 May 02:58:10 03:03:22 67° 282° (WNW) 03:08:39 435.822/435.867
BEESAT 24 May 03:15:30 03:20:16 64° 255° (WSW) 03:24:58 436.000
O/OREOS (USA 219) 24 May 03:29:41 03:32:13 15° 279° (W) 03:34:44 437.305
MOZHAYETS 4 24 May 03:30:57 03:35:34 79° 256° (WSW) 03:40:08
BEESAT 2 24 May 03:51:20 03:55:13 87° 303° (WNW) 03:59:05 435.950
CUBESAT XI-V 24 May 04:06:58 04:11:23 39° 82° (E) 04:15:46 437.345
ITUPSAT 1 24 May 04:19:02 04:21:27 14° 247° (WSW) 04:23:51 437.325
AO-7 24 May 04:22:31 04:28:33 22° 277° (W) 04:34:40 .
BEESAT 3 24 May 04:22:50 04:23:36 10° 288° (WNW) 04:24:21 437.485
XW-2C 24 May 04:26:15 04:26:21 10° 111° (ESE) 04:26:27 145.795 - 145.815
CUTE-I 24 May 04:28:52 04:32:08 16° 114° (ESE) 04:35:25 437.470
NUDT-PHONESAT 24 May 04:37:49 04:38:45 11° 111° (ESE) 04:39:40 437.300
KAITUO 1B 24 May 04:40:30 04:42:02 12° 110° (ESE) 04:43:34 145.475/437.950
KKS-1 24 May 04:51:02 04:55:34 73° 255° (WSW) 05:00:02 437.445
NO-84 24 May 04:53:20 04:57:05 49° 131° (SE) 05:01:06 435.350 FM
LilacSat-2 24 May 04:56:41 05:00:01 29° 106° (ESE) 05:03:23 437.200
DOVE 4 24 May 04:59:37 05:04:10 67° 104° (ESE) 05:09:05 437.250
STARS 24 May 05:32:26 05:36:50 58° 255° (WSW) 05:41:10 437.465
PCSat 24 May 05:34:29 05:35:28 10° 78° (ENE) 05:36:27 145.827
XW-2D 24 May 05:34:56 05:38:45 80° 284° (WNW) 05:42:37 145.860 - 145.880
XW-2B 24 May 05:42:49 05:46:36 64° 281° (W) 05:50:26 145.730 - 145.750
CUBESAT XI-V 24 May 05:45:33 05:48:22 16° 249° (WSW) 05:51:11 437.345
XW-2C 24 May 05:56:30 06:00:06 39° 279° (W) 06:03:45 145.795 - 145.815
HO-68 24 May 05:56:51 06:03:16 37° 112° (ESE) 06:09:43 435.675
XW-2F 24 May 05:58:20 06:01:54 39° 279° (W) 06:05:30 145.980 - 146.000
XW-2A 24 May 06:03:35 06:05:52 17° 108° (ESE) 06:08:09 145.665 - 145.685
CUTE-I 24 May 06:06:28 06:11:40 50° 281° (W) 06:16:57 437.470
NUDT-PHONESAT 24 May 06:08:47 06:12:14 35° 278° (W) 06:15:44 437.300
SEEDS 24 May 06:10:39 06:13:23 17° 110° (ESE) 06:16:06 437.485
KAITUO 1B 24 May 06:12:19 06:15:41 31° 278° (W) 06:19:05 145.475/437.950
NO-84 24 May 06:32:19 06:34:23 14° 302° (WNW) 06:36:30 435.350 FM
LilacSat-2 24 May 06:32:23 06:34:17 13° 274° (W) 06:36:11 437.200
CUTE 1.7 + AOD 2 24 May 06:48:19 06:52:33 88° 100° (E) 06:56:49 437.475
CUBEBUG 2 24 May 06:48:58 06:53:25 41° 106° (ESE) 06:57:55 437.445
ZACube-1 24 May 06:54:30 06:56:55 14° 111° (ESE) 06:59:21 437.345
UWE-3 24 May 07:07:04 07:11:23 38° 106° (ESE) 07:15:43 435.000/436.395/437.385
PCSat 24 May 07:12:47 07:18:10 71° 245° (WSW) 07:23:36 145.827
STRAND 1 24 May 07:17:02 07:22:12 71° 78° (ENE) 07:27:17 437.568
AAUSAT CUBESAT 2 24 May 07:19:39 07:23:40 54° 104° (ESE) 07:27:44 437.432
M-CUBED/EXP-1 PRIME 24 May 07:21:56 07:24:26 14° 82° (E) 07:26:56 437.505
ISS 24 May 07:24:46 07:27:05 18° 53° (NE) 07:29:26 437.550
Tancredo 1 24 May 07:26:57 07:29:45 32° 50° (NE) 07:32:36 437.200
XW-2A 24 May 07:35:57 07:38:25 18° 276° (W) 07:40:54 145.665 - 145.685
HO-68 24 May 07:44:30 07:50:51 34° 279° (W) 07:57:16 435.675
SEEDS 24 May 07:45:10 07:48:47 28° 277° (W) 07:52:26 437.485
Oscar 11 24 May 07:54:12 07:58:23 50° 105° (ESE) 08:02:37 .
DELFI C3 24 May 08:11:56 08:14:38 18° 109° (ESE) 08:17:20 145.870
AO-73 24 May 08:16:23 08:20:54 66° 281° (W) 08:25:25 145.935
CUBEBUG 2 24 May 08:27:19 08:30:06 15° 274° (W) 08:32:54 437.445
ZACube-1 24 May 08:28:28 08:32:48 41° 279° (W) 08:37:07 437.345
UWE-3 24 May 08:45:02 08:47:52 16° 274° (W) 08:50:42 435.000/436.395/437.385
M-CUBED/EXP-1 PRIME 24 May 08:54:27 08:58:56 46° 250° (WSW) 09:03:24 437.505
UNISAT 6 24 May 08:56:04 08:58:02 13° 87° (E) 08:59:59 437.425
STRAND 1 24 May 08:59:37 09:00:41 11° 244° (WSW) 09:01:44 437.568
ISS 24 May 09:00:33 09:03:24 27° 220° (SW) 09:06:19 437.550
Tancredo 1 24 May 09:03:39 09:05:36 15° 216° (SW) 09:07:34 437.200
EO-88 24 May 09:05:54 09:09:32 66° 103° (ESE) 09:13:15 145.990 - 145.960
FO-29 24 May 09:23:49 09:29:36 34° 84° (E) 09:34:44 435.910
SO-50 24 May 09:25:29 09:29:23 27° 69° (ENE) 09:33:22 436.795
DELFI C3 24 May 09:46:00 09:49:11 23° 276° (W) 09:52:23 145.870
TIGRISAT 24 May 09:59:50 10:04:15 78° 79° (E) 10:08:31 435.000
LO-87 24 May 10:00:47 10:04:07 35° 106° (ESE) 10:07:30 145.935 - 145.965
PRISM 24 May 10:05:04 10:09:13 57° 255° (WSW) 10:13:19 437.425
UNISAT 6 24 May 10:30:46 10:34:53 38° 254° (WSW) 10:38:52 437.425
SPROUT 24 May 10:45:44 10:48:24 16° 111° (ESE) 10:51:04 437.525
ESTCUBE 1 24 May 10:49:21 10:53:51 85° 104° (ESE) 10:58:24 437.505/2401.250
NANOSAT C BR1 24 May 10:54:02 10:56:35 15° 85° (E) 10:59:06 145.865
POLYITAN 1 24 May 10:54:59 10:57:54 18° 85° (E) 11:00:46 437.675
QB50P2 24 May 11:02:54 11:06:26 25° 83° (E) 11:09:54 145.880/145.840
SO-50 24 May 11:05:55 11:09:46 25° 235° (SW) 11:13:41 436.795
DUCHIFAT 1 24 May 11:06:10 11:09:14 19° 84° (E) 11:12:17 145.980
FO-29 24 May 11:09:03 11:14:24 28° 246° (WSW) 11:19:15 435.910
DX 1 24 May 11:13:49 11:15:04 11° 113° (ESE) 11:16:19 434.975-435.025
BUGSAT 1 24 May 11:39:07 11:40:59 13° 86° (E) 11:42:48 437.445
50 SAT 24 May 11:39:46 11:42:49 31° 106° (ESE) 11:45:55 437.505
AIST 2D 24 May 11:40:13 11:43:31 38° 255° (WSW) 11:46:47 435.315
EO-79 24 May 11:40:40 11:44:56 71° 79° (E) 11:49:08 145.935-145.965
VELOX 1 24 May 11:59:58 12:04:19 59° 281° (W) 12:08:45 145.980
RS-15 24 May 12:17:21 12:25:51 26° 76° (ENE) 12:34:08 29.354- 29.394
SPROUT 24 May 12:20:05 12:23:58 32° 278° (W) 12:27:54 437.525
YUBILEINY 24 May 12:21:53 12:30:17 51° 90° (E) 12:38:43 435.215
NANOSAT C BR1 24 May 12:28:32 12:32:18 31° 253° (WSW) 12:35:59 145.865
POLYITAN 1 24 May 12:30:01 12:33:37 27° 252° (WSW) 12:37:09 437.675
QB50P2 24 May 12:38:55 12:42:00 20° 250° (WSW) 12:45:03 145.880/145.840
DUCHIFAT 1 24 May 12:41:21 12:44:48 24° 252° (WSW) 12:48:12 145.980
Oscar 19 24 May 12:43:49 12:48:15 28° 83° (E) 12:52:37 437.125/150
UKube-1 24 May 12:45:30 12:49:49 80° 282° (WNW) 12:54:13 .
DX 1 24 May 12:46:30 12:50:43 50° 280° (W) 12:55:01 434.975-435.025
BUGSAT 1 24 May 13:12:35 13:16:25 35° 254° (WSW) 13:20:09 437.445
Gurwin Techsat 1B 24 May 13:34:00 13:39:15 53° 79° (E) 13:44:27 435.225
ITUPSAT 1 24 May 13:40:41 13:44:50 29° 109° (ESE) 13:49:00 437.325
JUGNU 24 May 13:44:47 13:46:50 12° 19° (NNE) 13:48:53 437.505
BEESAT 24 May 14:15:41 14:20:28 76° 105° (ESE) 14:25:18 436.000
YUBILEINY 24 May 14:20:01 14:27:15 28° 255° (WSW) 14:34:34 435.215
Oscar 19 24 May 14:23:04 14:27:24 27° 250° (WSW) 14:31:42 437.125/150
RS-15 24 May 14:26:08 14:37:13 68° 241° (WSW) 14:48:06 29.354- 29.394
MOZHAYETS 4 24 May 14:26:45 14:31:12 49° 105° (ESE) 14:35:41
AO-7 24 May 14:36:15 14:43:21 30° 81° (E) 14:50:20 .
AO-85 24 May 15:04:19 15:06:58 15° 75° (ENE) 15:09:41 145.980
CUBESAT XI-V 24 May 15:05:18 15:08:39 20° 110° (ESE) 15:12:01 437.345
Gurwin Techsat 1B 24 May 15:15:41 15:18:40 15° 246° (WSW) 15:21:38 435.225
ITAMSAT 1 24 May 15:16:55 15:22:10 72° 77° (ENE) 15:27:20 435.822/435.867
ITUPSAT 1 24 May 15:18:52 15:22:34 22° 276° (W) 15:26:18 437.325
JUGNU 24 May 15:30:43 15:35:16 23° 11° (N) 15:39:48 437.505
Tancredo 1 24 May 15:31:52 15:34:40 29° 139° (SE) 15:37:26 437.200
ISS 24 May 15:32:54 15:35:28 20° 142° (SE) 15:38:01 437.550
KKS-1 24 May 15:43:01 15:47:19 49° 106° (ESE) 15:51:42 437.445
O/OREOS (USA 219) 24 May 15:55:04 15:59:30 61° 250° (WSW) 16:03:59 437.305
PCSat 24 May 16:06:55 16:11:33 28° 122° (ESE) 16:16:09 145.827
MOZHAYETS 4 24 May 16:06:57 16:08:32 12° 273° (W) 16:10:06
STARS 24 May 16:22:45 16:27:06 57° 105° (ESE) 16:31:31 437.465
BEESAT 3 24 May 16:27:26 16:30:41 26° 68° (ENE) 16:33:55 437.485
AO-7 24 May 16:28:15 16:36:10 49° 247° (WSW) 16:44:00 .
CUBESAT XI-V 24 May 16:41:46 16:45:46 29° 277° (W) 16:49:49 437.345
AO-85 24 May 16:42:04 16:46:51 51° 240° (WSW) 16:51:58 145.980
RS-15 24 May 16:45:50 16:51:58 16° 216° (SW) 16:58:05 29.354- 29.394
ITAMSAT 1 24 May 16:59:41 17:00:55 11° 244° (WSW) 17:02:08 435.822/435.867
DOVE 4 24 May 17:04:29 17:09:14 32° 84° (E) 17:13:49 437.250
Tancredo 1 24 May 17:08:22 17:10:12 15° 306° (NW) 17:12:03 437.200
ISS 24 May 17:09:04 17:11:57 27° 309° (NW) 17:14:49 437.550
XW-2D 24 May 17:14:19 17:16:40 16° 85° (E) 17:19:00 145.860 - 145.880
JUGNU 24 May 17:18:45 17:23:46 29° 1° (N) 17:28:48 437.505
XW-2B 24 May 17:21:48 17:24:34 19° 84° (E) 17:27:18 145.730 - 145.750
KKS-1 24 May 17:22:49 17:24:04 11° 273° (W) 17:25:18 437.445
XW-2C 24 May 17:34:47 17:38:08 29° 82° (E) 17:41:27 145.795 - 145.815
XW-2F 24 May 17:36:10 17:39:29 29° 82° (E) 17:42:47 145.980 - 146.000
BEESAT 2 24 May 17:36:55 17:40:48 65° 64° (ENE) 17:44:42 435.950
NUDT-PHONESAT 24 May 17:44:49 17:48:06 29° 82° (E) 17:51:21 437.300
KAITUO 1B 24 May 17:48:52 17:52:19 34° 82° (E) 17:55:44 145.475/437.950
PCSat 24 May 17:50:09 17:54:51 30° 288° (WNW) 17:59:30 145.827
SRMSAT 24 May 17:52:40 17:57:05 21° 13° (NNE) 18:01:30 437.500
BEESAT 3 24 May 18:05:35 18:08:12 17° 235° (SW) 18:10:49 437.485
LilacSat-2 24 May 18:09:00 18:12:50 80° 259° (W) 18:16:37 437.200
